AirNav  
 
 631 users online  

6FL7 Timmer Heliport
Lake Wales, Florida, USA


FAA INFORMATION EFFECTIVE 01 FEBRUARY 2018

Location

FAA Identifier: 6FL7
Lat/Long: 27-50-04.8100N / 081-26-15.1200W
27-50.080167N / 081-26.252000W
27.8346694 / -81.4375333
(estimated)
Elevation: 104 ft. / 32 m (estimated)
From city: 9 miles NW of LAKE WALES, FL
Time zone: UTC -5 (UTC -4 during Daylight Saving Time)
Zip code: 33859

Heliport Operations

Heliport use: Private use. Permission required prior to landing
Activation date: 11/2005
Control tower: no
ARTCC: MIAMI CENTER
FSS: SAINT PETERSBURG FLIGHT SERVICE STATION
Attendance: UNATNDD
Wind indicator: yes
Segmented circle: no

Heliport Communications

WX AWOS-3 at X07 (10 nm W): 124.225 (863-678-1334)
WX AWOS-3 at AVO (15 nm S): 118.725 (863-453-4223)
WX AWOS-3 at BOW (19 nm W): 123.775 (863-533-9004)

Nearby radio navigation aids

VOR radial/distance  VOR name  Freq  Var
LALr106/31.9LAKELAND VORTAC116.0001E

Heliport Services

Runway Information

Helipad H1

Dimensions: 465 x 160 ft. / 142 x 49 m
Surface: turf
Traffic pattern: leftleft

Heliport Ownership and Management from official FAA records

Ownership: Privately-owned
Owner: WILLIAM TIMMER
3025 SCRUB OAK LANE
LAKE WALES, FL 33898
Phone 863-207-0441
Manager: WILLIAM TIMMER
3025 SCRUB OAK LANE
LAKE WALES, FL 33898
Phone 863-207-0441

Heliport Operational Statistics

Aircraft based on the field: 1
Helicopters: 1
    

Additional Remarks

LAND TO THE EAST.
35 FT TREES LCTD 465 FT FM HELIPAD AT 093 AND 273 DEGS.
OWNER DESIRES HELIPORT NOT BE CHARTED.

Instrument Procedures

There are no published instrument procedures at 6FL7.

Some nearby airports with instrument procedures:

X07 - Lake Wales Municipal Airport (10 nm W)
KAVO - Avon Park Executive Airport (15 nm S)
KBOW - Bartow Municipal Airport (19 nm W)
KGIF - Winter Haven's Gilbert Airport (22 nm NW)
KSEF - Sebring Regional Airport (23 nm S)
 
Loc | Ops | Rwys | IFR | FBO | Links
Com | Nav | Svcs | Stats | Notes


 
Area around 6FL7 (Timmer Heliport)
 
Road maps at: MapQuest Bing Google
 
Aerial photo
No photo
 
Sectional chart

 
Airport distance calculator
Flying to Timmer Heliport? Find the distance to fly.

From to 6FL7

Sunrise and sunset
Times for 20-Feb-2018
 Local
(UTC-5)
 Zulu
(UTC)
Morning civil twilight06:3611:36
Sunrise07:0012:00
Sunset18:1923:19
Evening civil twilight18:4323:43

Current date and time
Zulu (UTC)  20-Feb-2018 12:12:24
Local (UTC-5)  20-Feb-2018 07:12:24
 
METAR
KBOW 
18nm W 
201155Z AUTO 09006KT 8SM CLR 19/ A3031 RMK AO2
KGIF 
22nm NW 
201153Z AUTO 11008KT 10SM CLR 21/19 A3032 RMK AO2 SLP265 T02060194 10211 20206 53012
KSEF 
23nm S 
201155Z AUTO 09004KT 10SM SCT001 20/18 A3030 RMK AO2 T01970181 10203 20188
KISM 
27nm N 
201156Z 09004KT 10SM CLR 20/19 A3033 RMK AO2 SLP271 T02000194 10211 20194 53012
KLAL 
32nm W 
201150Z 11006KT 10SM SKC 19/19 A3030
KMCO 
35nm N 
201153Z VRB04KT 10SM FEW040 19/19 A3032 RMK AO2 SLP266 T01940194 10211 20194 53011
TAF
KISM 
27nm N 
201120Z 2012/2112 09007KT P6SM SKC FM201500 12011KT P6SM SCT030 FM202000 11011KT P6SM SCT035 BKN050 FM210200 11006KT P6SM FEW040 SCT050
KLAL 
32nm W 
201142Z 2012/2112 11006KT P6SM SCT070 FM201400 12011KT P6SM SCT030 FM201600 12011KT P6SM SCT040 FM202000 12010KT P6SM BKN050 FM210200 10007KT P6SM SCT050 FM210900 10005KT P6SM SCT015
NOTAMs
Click for the latest NOTAMs
NOTAMs are issued by the DoD/FAA and will open in a separate window not controlled by AirNav.

 

 
 

Would you like to see your business listed on this page?

 If your business provides an interesting product or service to pilots, flight crews, aircraft, or users of the Timmer Heliport, you should consider listing it here.  To start the listing process, click on the button below
 
Add a business
 

Other Pages about Timmer Heliport

Update a link
 
Copyright © AirNav, LLC. All rights reserved. Privacy Policy  Contact